彩虹 32星 (RADUGA 32)

导读

RADUGA 32(彩虹32号)是独联体(CIS,苏联解体后由俄罗斯继承)发射的静止轨道通信卫星,由俄罗斯应用力学设计局研发,1994年12月28日在拜科努尔发射场由质子K Blok-DM2运载火箭送入太空,卫星质量约2000kg,设计寿命3年,属于俄罗斯Raduga(彩虹)通信卫星系列,定点于地球静止轨道,主要为俄罗斯及周边地区提供通信、广播服务,是俄罗斯卫星通信网络的重要组成部分。

基本信息
目录编号:
23448
目录名称:
RADUGA 32
国际标识:
1994-087A
轨道中心:
EARTH
卫星名称:
彩虹 32星
卫星全名:
彩虹 32星 (RADUGA 32)
卫星状态:
在轨 (已飞行11498 天)
发射日期:
1994-12-28 UTC
国别 :
俄罗斯(独联体) (CIS)
星等 :
--
轨道信息
数据来源 国际轨道数据 AOE轨道数据
星历时间 2026-06-20T07:31:27+0800
1天前
查看轨道信息
2026-06-20T07:00:00+0800
1天前
查看轨道信息
半长轴 42165.85km 42165.85km
偏心率 0.0007941 0.000775
轨道倾角 14.306° 14.306°
近地点辐角 268.735° 269.097°
升交点赤经 350.959° 350.960°
平近点角 81.103° 72.858°
近地点 35754.229km 35755.034km
远地点 35821.197km 35820.392km
周期 1436.154分钟 1436.154分钟
每日圈数 1.002678 1.002678
详细信息
平衡模式:
三轴稳定
覆盖范围:
全球
运营商:
俄罗斯国家航天集团
运营商所在国:
俄罗斯
制造商(研发单位):
普里克拉德诺伊·梅哈尼基设计局
制造商所在国:
俄罗斯联邦
使用方式:
暂无
卫星简介
彩虹卫星(Raduga, Gran)是苏联用于军事和通信目的的一系列地球静止通信卫星。彩虹卫星旨在支持军事通信、Orbita地面电视网络,并在整个东半球(极地地区除外)提供电话和电报通信。该卫星已退役。
2D轨道图
3D轨道图
轨道高度分析图
轨道倾角分析图
轨道综合分析图
查看轨道综合分析图